User: anonymous   Login
Location: Plum
(40.5000°N, 79.7500°W)
Time: 22:52:27
(UTC-04:00)
Language:

Cosmos 1825 - Orbit

View from above orbital plane
View from above orbital plane
View from above satellite
View from above satellite

Ground track
Ground track

The orbit data is extracted from the following two-line orbital elements,

1 17566U 87024A   16209.54285930  .00000881  00000-0  41851-4 0  9990
2 17566  82.5040 251.8303 0002325 259.7030 100.3942 15.17930826604580
Epoch (UTC): 27 July 2016 13:01:43
Eccentricity: 0.0002325
inclination: 82.5040°
perigee height: 510 km
apogee height: 514 km
right ascension of ascending node: 251.8303°
argument of perigee: 259.7030°
revolutions per day: 15.17930826
mean anomaly at epoch: 100.3942°
orbit number at epoch: 60458

The dashed part of the orbit path shows where the satellite is in the earth's shadow,  

DLR